Find Starlink 34723

NORAD ID: 64842 Int'l Des: 2025-152 Owner: SPXS Country: US Constellation: starlink operational
LEOCIRCULARRETROGRADESSO

現在のビュー

3D地球を読み込み中...

About Starlink 34723

Starlink 34723 (NORAD 64842) is a starlink constellation satellite (v2 mini) launched Jul 19, 2025 by SPXS of US. It operates in LEO, CIRCULAR, RETROGRADE, SSO orbit with a mass of 575.00 kg.

次回通過

Passes for default location (London). Set your location on the main map for personalized predictions.

高度履歴

Loading altitude history...

軌道要素

1 64842U 25152A 26263.48591063 .00011580 00000-0 36042-3 0 9997
2 64842 97.2858 114.0689 0001636 90.2384 269.9046 15.33448758 64820
Epoch: Sep 20, 2026 • Age: 13 hours

現在のステータス

高度 477.0 km
遠地点 / 近地点 N/A
速度 7.63 km/s
衛星直下点 72.89°N, 82.59°E
打ち上げ日 Jul 19, 2025
運用期間 1.1 years
タイプ internet

技術仕様

分類 Payload
質量 575.00 kg
乾燥質量 530.00 kg
長さ 0.30 m
スパン 29.00 m
形状 ? Box + pan
製造者 SPXS
バスタイプ Starlink V2MO
フェーズステータス In Orbit
所有者/国 SPXS/US

Most Searched